Regional Weather Roundup
Issued by NWS

Home | Current Version | Previous Version | Graphics & Text | Print | Product List | Glossary On
Versions: 1 2 3 4 5 6 7 8 9 10 11 12 13 14 15 16 17 18 19 20 21 22 23 24 25 26 27
000
ASUS45 KCYS 231610
RWRWY

WYOMING REGIONAL WEATHER ROUNDUP
NATIONAL WEATHER SERVICE CHEYENNE WY
1000 AM MDT SAT JUL 23 2016

NOTE:  "FAIR" INDICATES FEW OR NO CLOUDS BELOW 12,000 FEET
WITH NO SIGNIFICANT WEATHER AND/OR OBSTRUCTIONS TO VISIBILITY.

WYZ001-231700-
YELLOWSTONE NATIONAL PARK

CITY           SKY/WX    TMP DP  RH WIND       PRES   REMARKS
LK YELLOWSTONE   N/A     60  29  30 VRB6G17   30.34R
W YELLOWSTONE  NOT AVBL

$$
WYZ002>013-054>058-071-098>099-231700-
NORTHERN WYOMING

CITY           SKY/WX    TMP DP  RH WIND       PRES   REMARKS
JACKSON        SUNNY     66  30  26 SW6       30.26F
CODY           FAIR      70  45  40 CALM      30.12F
GREYBULL       FAIR      79  40  24 NE8       30.04S
WORLAND        FAIR      78  42  27 NW8       30.07F
SHERIDAN       FAIR      78  42  27 N7        30.05S
BUFFALO        FAIR      73  40  30 VRB6      30.12R
GILLETTE       FAIR      74  42  31 N16G23    30.06S
HULETT         FAIR      75  37  25 N17G26    30.05S
NEWCASTLE      FAIR      77  37  24 N25G32    30.00S

$$
WYZ014>020-022>026-101>103-231700-
CENTRAL WYOMING

CITY           SKY/WX    TMP DP  RH WIND       PRES   REMARKS
BIG PINEY      FAIR      70  24  17 SW6       30.30F
PINEDALE       FAIR      66  23  19 CALM      30.31F
DUBOIS         FAIR      70  16  12 W17G26    30.25S
LANDER         FAIR      75  27  17 CALM      30.14S
RIVERTON       FAIR      74  43  32 E6        30.14S
CASPER         FAIR      73  40  30 NE7       30.14F
DOUGLAS          N/A    N/A N/A N/A MISG      30.11F

$$
WYZ021-027>030-104>119-231700-
SOUTHERN WYOMING

CITY           SKY/WX    TMP DP  RH WIND       PRES   REMARKS
EVANSTON       FAIR      71  29  21 VRB5      30.34S
KEMMERER         N/A     72  21  15 W13G21    30.33F
FORT BRIDGER   FAIR      73  24  16 NW6       30.35F
ROCK SPRINGS   FAIR      74  24  15 W13       30.28S
DIXON          FAIR      74  48  40 W3        30.29F
RAWLINS        FAIR      78  25  14 W18G25    30.25F
SARATOGA       FAIR      77  37  24 W13G23    30.29F
LARAMIE        FAIR      80  37  21 W16       30.25F
CHEYENNE       FAIR      85  38  18 NW16G23   30.16R
TORRINGTON     FAIR      83  45  26 NW10      30.01R
PINE BLUFFS    FAIR      88  37  16 NW18G26   30.07S

$$




USA.gov is the U.S. government's official web portal to all federal, state and local government web resources and services.